TimeMST,TemperatureF,Dew PointF,Humidity,Sea Level PressureIn,VisibilityMPH,Wind Direction,Wind SpeedMPH,Gust SpeedMPH,PrecipitationIn,Events,Conditions,WindDirDegrees,DateUTC
12:15 AM,17.6,10.4,73,30.35,10.0,South,6.9,-,N/A,,Clear,180,2013-01-17 07:15:00
12:35 AM,19.4,10.4,68,30.35,10.0,South,8.1,-,N/A,,Clear,190,2013-01-17 07:35:00
12:55 AM,19.4,12.2,74,30.36,10.0,South,8.1,-,N/A,,Clear,180,2013-01-17 07:55:00
1:15 AM,19.4,12.2,74,30.36,10.0,South,8.1,-,N/A,,Clear,170,2013-01-17 08:15:00
1:35 AM,21.2,14.0,74,30.36,10.0,South,11.5,-,N/A,,Clear,170,2013-01-17 08:35:00
1:55 AM,23.0,14.0,68,30.36,10.0,South,11.5,-,N/A,,Clear,170,2013-01-17 08:55:00
2:35 AM,21.2,14.0,74,30.36,10.0,South,11.5,-,N/A,,Clear,180,2013-01-17 09:35:00
2:55 AM,21.2,12.2,68,30.36,10.0,South,12.7,-,N/A,,Clear,180,2013-01-17 09:55:00
3:15 AM,21.2,12.2,68,30.36,10.0,South,11.5,-,N/A,,Clear,180,2013-01-17 10:15:00
3:35 AM,21.2,12.2,68,30.36,10.0,South,10.4,-,N/A,,Clear,180,2013-01-17 10:35:00
3:55 AM,19.4,12.2,74,30.36,10.0,South,11.5,-,N/A,,Clear,180,2013-01-17 10:55:00
4:15 AM,19.4,12.2,74,30.36,10.0,South,11.5,-,N/A,,Clear,180,2013-01-17 11:15:00
4:35 AM,19.4,12.2,74,30.36,10.0,South,11.5,-,N/A,,Clear,190,2013-01-17 11:35:00
4:55 AM,21.2,14.0,74,30.36,10.0,South,10.4,-,N/A,,Clear,190,2013-01-17 11:55:00
5:15 AM,21.2,15.8,80,30.36,10.0,South,10.4,-,N/A,,Clear,180,2013-01-17 12:15:00
5:35 AM,21.2,15.8,80,30.36,10.0,South,10.4,-,N/A,,Clear,180,2013-01-17 12:35:00
5:55 AM,23.0,15.8,74,30.37,10.0,South,11.5,-,N/A,,Clear,190,2013-01-17 12:55:00
6:15 AM,21.2,14.0,74,30.37,10.0,South,10.4,-,N/A,,Clear,190,2013-01-17 13:15:00
6:35 AM,21.2,14.0,74,30.37,10.0,SSW,8.1,-,N/A,,Clear,200,2013-01-17 13:35:00
6:55 AM,21.2,14.0,74,30.37,10.0,SSW,9.2,-,N/A,,Clear,200,2013-01-17 13:55:00
7:15 AM,21.2,14.0,74,30.37,10.0,SSW,6.9,-,N/A,,Clear,200,2013-01-17 14:15:00
7:35 AM,21.2,14.0,74,30.39,10.0,SSW,9.2,-,N/A,,Clear,200,2013-01-17 14:35:00
7:55 AM,24.8,14.0,64,30.39,10.0,SSW,10.4,-,N/A,,Clear,200,2013-01-17 14:55:00
8:15 AM,26.6,15.8,64,30.40,10.0,SSW,5.8,-,N/A,,Clear,200,2013-01-17 15:15:00
8:35 AM,30.2,17.6,60,30.41,10.0,SSW,8.1,-,N/A,,Clear,200,2013-01-17 15:35:00
8:55 AM,32.0,17.6,55,30.42,10.0,SSW,10.4,-,N/A,,Clear,200,2013-01-17 15:55:00
9:14 AM,33.8,17.6,52,30.42,10.0,SSW,10.4,-,N/A,,Clear,200,2013-01-17 16:14:00
9:35 AM,35.6,19.4,52,30.42,10.0,SSW,6.9,-,N/A,,Clear,210,2013-01-17 16:35:00
9:55 AM,37.4,17.6,45,30.42,10.0,SSW,9.2,-,N/A,,Clear,200,2013-01-17 16:55:00
10:15 AM,37.4,15.8,41,30.41,10.0,SSW,5.8,-,N/A,,Clear,210,2013-01-17 17:15:00
10:35 AM,41.0,14.0,33,30.41,10.0,WSW,3.5,-,N/A,,Clear,240,2013-01-17 17:35:00
10:55 AM,41.0,15.8,36,30.40,10.0,South,3.5,-,N/A,,Clear,180,2013-01-17 17:55:00
11:15 AM,42.8,14.0,31,30.39,10.0,South,3.5,-,N/A,,Clear,190,2013-01-17 18:15:00
11:35 AM,42.8,14.0,31,30.38,10.0,Calm,Calm,-,N/A,,Clear,0,2013-01-17 18:35:00
11:55 AM,42.8,15.8,34,30.37,10.0,WSW,3.5,-,N/A,,Clear,240,2013-01-17 18:55:00
12:15 PM,42.8,14.0,31,30.36,10.0,Calm,Calm,-,N/A,,Clear,0,2013-01-17 19:15:00
12:35 PM,44.6,14.0,29,30.35,10.0,SW,3.5,-,N/A,,Clear,230,2013-01-17 19:35:00
12:55 PM,44.6,14.0,29,30.33,10.0,Calm,Calm,-,N/A,,Clear,0,2013-01-17 19:55:00
1:15 PM,44.6,15.8,31,30.33,10.0,South,5.8,-,N/A,,Clear,190,2013-01-17 20:15:00
1:35 PM,44.6,14.0,29,30.32,10.0,Calm,Calm,-,N/A,,Clear,0,2013-01-17 20:35:00
1:55 PM,44.6,15.8,31,30.31,10.0,SSW,5.8,-,N/A,,Clear,200,2013-01-17 20:55:00
2:15 PM,44.6,17.6,34,30.30,10.0,South,6.9,-,N/A,,Clear,190,2013-01-17 21:15:00
2:35 PM,44.6,17.6,34,30.30,10.0,SSE,8.1,-,N/A,,Clear,160,2013-01-17 21:35:00
2:55 PM,44.6,17.6,34,30.30,10.0,South,8.1,-,N/A,,Clear,180,2013-01-17 21:55:00
3:15 PM,44.6,17.6,34,30.30,10.0,SSW,8.1,-,N/A,,Clear,210,2013-01-17 22:15:00
3:35 PM,42.8,17.6,36,30.30,10.0,SSW,8.1,-,N/A,,Clear,200,2013-01-17 22:35:00
3:54 PM,42.8,17.6,36,30.30,10.0,South,9.2,-,N/A,,Clear,190,2013-01-17 22:54:00
4:15 PM,41.0,17.6,39,30.30,10.0,South,9.2,-,N/A,,Clear,190,2013-01-17 23:15:00
4:35 PM,37.4,17.6,45,30.30,10.0,SSW,6.9,-,N/A,,Clear,200,2013-01-17 23:35:00
4:54 PM,33.8,17.6,52,30.30,10.0,SSW,10.4,-,N/A,,Clear,200,2013-01-17 23:54:00
5:15 PM,32.0,17.6,55,30.30,10.0,South,9.2,-,N/A,,Clear,190,2013-01-18 00:15:00
5:35 PM,30.2,17.6,60,30.30,10.0,South,9.2,-,N/A,,Clear,190,2013-01-18 00:35:00
5:55 PM,28.4,17.6,64,30.30,10.0,South,11.5,-,N/A,,Clear,190,2013-01-18 00:55:00
6:15 PM,28.4,17.6,64,30.30,10.0,SSW,10.4,-,N/A,,Clear,200,2013-01-18 01:15:00
6:35 PM,28.4,17.6,64,30.30,10.0,SSW,9.2,-,N/A,,Clear,200,2013-01-18 01:35:00
6:54 PM,30.2,17.6,60,30.29,10.0,SSW,9.2,-,N/A,,Clear,210,2013-01-18 01:54:00
7:15 PM,28.4,17.6,64,30.29,10.0,SSW,10.4,-,N/A,,Clear,200,2013-01-18 02:15:00
7:55 PM,28.4,17.6,64,30.29,10.0,SSW,9.2,-,N/A,,Clear,210,2013-01-18 02:55:00
8:15 PM,30.2,15.8,55,30.28,10.0,SSW,10.4,-,N/A,,Clear,210,2013-01-18 03:15:00
8:35 PM,30.2,15.8,55,30.28,10.0,SSW,10.4,-,N/A,,Clear,210,2013-01-18 03:35:00
8:55 PM,28.4,15.8,59,30.28,10.0,SSW,11.5,-,N/A,,Clear,210,2013-01-18 03:55:00
9:15 PM,28.4,15.8,59,30.27,10.0,SSW,10.4,-,N/A,,Clear,210,2013-01-18 04:15:00
9:35 PM,26.6,15.8,64,30.26,10.0,SSW,6.9,-,N/A,,Clear,210,2013-01-18 04:35:00
9:54 PM,28.4,15.8,59,30.26,10.0,SSW,6.9,-,N/A,,Clear,210,2013-01-18 04:54:00
10:15 PM,30.2,15.8,55,30.25,10.0,SW,11.5,-,N/A,,Clear,220,2013-01-18 05:15:00
10:35 PM,30.2,15.8,55,30.24,10.0,SW,11.5,-,N/A,,Clear,220,2013-01-18 05:35:00
10:55 PM,30.2,15.8,55,30.24,10.0,SW,11.5,-,N/A,,Clear,220,2013-01-18 05:55:00
11:15 PM,30.2,14.0,51,30.24,10.0,SW,11.5,-,N/A,,Clear,230,2013-01-18 06:15:00
11:35 PM,28.4,14.0,55,30.23,10.0,WSW,12.7,-,N/A,,Clear,240,2013-01-18 06:35:00
11:55 PM,28.4,14.0,55,30.23,10.0,SW,11.5,-,N/A,,Clear,230,2013-01-18 06:55:00